Home   Weather   Washington Hill   Past weeks
Flag for USA

Past Weather in Washington Hill, Alabama, USA — Yesterday and Last 2 Weeks

Now
72 °F

Overcast.


Feels Like: 70 °F
Forecast: 91 / 69 °F
Wind: 3 mph from Northeast

Location: Maxwell Air Force Base / Montgomery

Current Time: May 23, 2019 at 8:01:55 am

Latest Report: May 23, 2019 at 6:56 am


Visibility: 10 mi

Pressure: 30.18 "Hg

Humidity: 86%

Dew Point: 67 °F

Location of Washington HillLocation

Past Weather in Washington Hill — Graph

°F

Washington Hill Temperature Yesterday

Maximum temperature yesterday: 91 °F (at 3:56 pm)
Minimum temperature yesterday: 63 °F (at 5:56 am)
Average temperature yesterday: 76 °F

High & Low Weather Summary for the Past Weeks

 TemperatureHumidityPressure
High91 °F (May 22, 3:56 pm)100% (May 9, 4:27 pm)30.15 "Hg (May 9, 4:27 pm)
Low54 °F (May 14, 4:56 am)33% (May 14, 4:56 pm)29.74 "Hg (May 12, 4:57 pm)
Average74 °F76%29.97 "Hg
* Reported May 8 5:56 am — May 23 5:56 am, Washington Hill. Weather by CustomWeather, © 2019

Note: Actual official high and low records may vary slightly from our data, if they occured in-between our weather recording intervals... More about our weather records

Advertising

Washington Hill Weather History for the Previous 24 Hours

Scroll right to see more
 ConditionsComfort  
Time TempWeatherWind HumidityBarometerVisibility
5:56 am
Thu, May 23
70 °FScattered clouds.3 mph92%30.15 "Hg10 mi
4:56 am71 °FPassing clouds.No wind89%30.13 "Hg10 mi
3:56 am70 °FClear.No wind94%30.11 "Hg10 mi
2:56 am69 °FClear.3 mph95%30.09 "Hg10 mi
12:56 am70 °FClear.No wind94%30.09 "Hg10 mi
11:56 pm
Wed, May 22
72 °FClear.No wind90%30.10 "Hg10 mi
10:56 pm75 °FClear.No wind83%30.10 "Hg10 mi
9:56 pm76 °FClear.No wind78%30.09 "Hg10 mi
8:56 pm77 °FClear.No wind72%30.08 "Hg10 mi
7:56 pm81 °FClear.No wind62%30.07 "Hg10 mi
6:56 pm87 °FSunny.No wind48%30.06 "Hg10 mi
5:56 pm90 °FSunny.3 mph39%30.06 "Hg10 mi
4:56 pm91 °FSunny.7 mph38%30.06 "Hg10 mi
3:56 pm91 °FSunny.9 mph36%30.06 "Hg10 mi
2:56 pm90 °FSunny.9 mph34%30.06 "Hg10 mi
12:56 pm88 °FSunny.9 mph41%30.08 "Hg10 mi
11:56 am85 °FSunny.No wind52%30.08 "Hg10 mi
10:56 am82 °FSunny.5 mph57%30.09 "Hg10 mi
9:56 am80 °FPassing clouds.7 mph67%30.08 "Hg10 mi
8:56 am76 °FPassing clouds.3 mph79%30.07 "Hg10 mi
8:11 am73 °FScattered clouds.No wind83%30.06 "Hg10 mi
Weather by CustomWeather, © 2019

See weather overview